Location: W�rzburg
(49.7529°N, 9.8822°E)
Time: 08:44:49
(UTC+02:00)

ISS - Visible Passes

Search period start: 24 September 2017 00:00
Search period end: 04 October 2017 00:00
Orbit: 401 x 407 km, 51.6° (Epoch: 24 September)

Date Brightness Start Highest point End Pass type
(mag) Time Alt. Az. Time Alt. Az. Time Alt. Az.
25 Sep -1.2 21:19:11 10° SSW 21:19:31 12° SSW 21:19:31 12° SSW visible
26 Sep -2.3 20:27:28 10° SSW 20:29:53 20° SE 20:29:53 20° SE visible
27 Sep -1.7 19:36:22 10° SSE 19:37:52 13° SE 19:39:22 10° ESE visible
27 Sep -2.7 21:10:34 10° SW 21:12:44 36° SW 21:12:44 36° SW visible
28 Sep -3.1 20:18:28 10° SW 20:21:30 36° SSE 20:22:45 26° ESE visible
28 Sep -1.0 21:54:36 10° W 21:55:24 16° W 21:55:24 16° W visible
29 Sep -3.8 21:02:12 10° WSW 21:05:17 78° WSW 21:05:17 78° WSW visible
30 Sep -3.8 20:09:52 10° WSW 20:13:07 64° SSE 20:15:03 22° E visible
30 Sep -1.3 21:46:24 10° W 21:47:42 22° W 21:47:42 22° W visible
01 Oct -3.7 20:53:56 10° W 20:57:12 68° N 20:57:23 66° NNE visible
02 Oct -3.8 20:01:28 10° WSW 20:04:45 83° NNW 20:07:01 19° ENE visible
02 Oct -1.5 21:38:08 10° WNW 21:39:39 24° WNW 21:39:39 24° WNW visible
03 Oct -3.6 20:45:39 10° W 20:48:54 59° N 20:49:14 56° NNE visible
